�������l�o���
Date,Time,MP-1(��Sv/h),MP-2(��Sv/h),MP-3(��Sv/h),MP-4(��Sv/h),MP-5(��Sv/h),MP-6(��Sv/h),MP-7(��Sv/h),MP-8(��Sv/h),����,����(m/s),���J
2019/06/01,00:00,0.743,1.062,0.743,1.347,0.996,0.434,0.755,0.715,�k,1.2,�L
2019/06/01,00:10,0.742,1.064,0.744,1.348,0.995,0.435,0.756,0.714,�k,1.5,�L
2019/06/01,00:20,0.741,1.062,0.742,1.348,0.995,0.436,0.755,0.715,�k�k��,0.9,�L
2019/06/01,00:30,0.741,1.060,0.743,1.347,0.994,0.436,0.757,0.714,�k�k��,0.6,�L
2019/06/01,00:40,0.743,1.059,0.743,1.349,0.995,0.436,0.757,0.715,�k�k��,1.5,�L
2019/06/01,00:50,0.741,1.059,0.742,1.344,0.994,0.435,0.757,0.717,-,CALM,�L
2019/06/01,01:00,0.743,1.062,0.741,1.347,0.997,0.435,0.756,0.716,-,CALM,�L
2019/06/01,01:10,0.741,1.063,0.742,1.345,0.995,0.434,0.756,0.715,���쐼,1.4,�L
2019/06/01,01:20,0.741,1.064,0.742,1.346,0.994,0.435,0.755,0.715,�쐼,1.2,�L
2019/06/01,01:30,0.740,1.062,0.742,1.347,0.996,0.436,0.757,0.717,��,1.7,�L
2019/06/01,01:40,0.741,1.061,0.741,1.347,0.996,0.435,0.757,0.713,��,0.8,�L
2019/06/01,01:50,0.741,1.063,0.743,1.347,0.993,0.436,0.756,0.716,���쐼,1.5,�L
2019/06/01,02:00,0.742,1.062,0.742,1.345,0.994,0.435,0.755,0.718,���쐼,1.4,�L
2019/06/01,02:10,0.743,1.062,0.741,1.345,0.996,0.435,0.755,0.717,��,1.4,�L
2019/06/01,02:20,0.740,1.059,0.741,1.343,0.992,0.436,0.756,0.717,��,1.2,�L
2019/06/01,02:30,0.741,1.059,0.743,1.345,0.993,0.435,0.756,0.715,��,1.5,�L
2019/06/01,02:40,0.742,1.059,0.744,1.344,0.992,0.435,0.756,0.715,���쐼,1.5,�L
2019/06/01,02:50,0.742,1.059,0.741,1.344,0.994,0.435,0.756,0.714,��,1.7,�L
2019/06/01,03:00,0.740,1.056,0.740,1.344,0.993,0.436,0.757,0.716,��,1.4,�L
2019/06/01,03:10,0.741,1.056,0.741,1.343,0.992,0.435,0.756,0.715,��,1.5,�L
2019/06/01,03:20,0.738,1.060,0.740,1.343,0.991,0.435,0.756,0.715,���k��,2.2,�L
2019/06/01,03:30,0.739,1.059,0.743,1.345,0.994,0.436,0.757,0.715,�k��,2.3,�L
2019/06/01,03:40,0.739,1.058,0.740,1.343,0.991,0.435,0.756,0.715,�k��,3.0,��
2019/06/01,03:50,0.742,1.061,0.742,1.341,0.990,0.434,0.758,0.715,�k��,3.6,��
2019/06/01,04:00,0.741,1.059,0.742,1.343,0.993,0.434,0.756,0.715,���k��,3.4,��
2019/06/01,04:10,0.741,1.056,0.743,1.341,0.992,0.436,0.754,0.715,���k��,3.8,��
2019/06/01,04:20,0.740,1.059,0.737,1.342,0.992,0.435,0.753,0.714,���k��,3.7,��
2019/06/01,04:30,0.742,1.058,0.741,1.342,0.991,0.436,0.755,0.715,�k��,3.5,��
2019/06/01,04:40,0.740,1.059,0.740,1.341,0.992,0.435,0.756,0.716,�k��,3.0,��
2019/06/01,04:50,0.742,1.056,0.740,1.340,0.992,0.434,0.755,0.714,�k��,2.3,��
2019/06/01,05:00,0.738,1.060,0.740,1.343,0.991,0.434,0.756,0.716,�k��,2.0,��
2019/06/01,05:10,0.740,1.057,0.741,1.342,0.990,0.435,0.756,0.715,���k��,2.0,��
2019/06/01,05:20,0.740,1.057,0.739,1.343,0.990,0.434,0.756,0.715,���k��,2.8,��
2019/06/01,05:30,0.739,1.060,0.739,1.343,0.992,0.432,0.754,0.715,���k��,3.9,��
2019/06/01,05:40,0.739,1.056,0.739,1.341,0.990,0.435,0.756,0.714,���k��,4.2,��
2019/06/01,05:50,0.739,1.059,0.739,1.343,0.990,0.435,0.755,0.714,���k��,3.6,��
2019/06/01,06:00,0.737,1.059,0.739,1.344,0.991,0.433,0.754,0.715,�k��,3.6,��
2019/06/01,06:10,0.741,1.058,0.741,1.344,0.991,0.434,0.756,0.716,���k��,3.3,��
2019/06/01,06:20,0.741,1.062,0.739,1.341,0.991,0.434,0.756,0.715,�k��,3.1,��
2019/06/01,06:30,0.741,1.060,0.739,1.344,0.992,0.435,0.757,0.715,�k��,1.9,��
2019/06/01,06:40,0.737,1.059,0.739,1.343,0.991,0.433,0.756,0.716,���k��,0.6,��
2019/06/01,06:50,0.741,1.056,0.740,1.343,0.989,0.435,0.757,0.715,�k�k��,1.7,��
2019/06/01,07:00,0.740,1.059,0.739,1.343,0.990,0.434,0.758,0.714,�k��,1.2,��
2019/06/01,07:10,0.741,1.057,0.740,1.343,0.993,0.433,0.756,0.715,�k,1.1,��
2019/06/01,07:20,0.740,1.058,0.738,1.345,0.991,0.433,0.756,0.715,�k�k��,1.7,��
2019/06/01,07:30,0.740,1.058,0.741,1.346,0.990,0.434,0.756,0.716,�k�k��,1.7,��
2019/06/01,07:40,0.738,1.060,0.740,1.343,0.994,0.433,0.755,0.715,�k��,1.9,��
2019/06/01,07:50,0.740,1.058,0.741,1.345,0.994,0.431,0.755,0.715,�k�k��,1.5,��
2019/06/01,08:00,0.740,1.058,0.740,1.347,0.995,0.434,0.758,0.715,�k,1.7,��
2019/06/01,08:10,0.742,1.062,0.741,1.348,0.995,0.432,0.757,0.714,�k�k��,2.5,��
2019/06/01,08:20,0.740,1.063,0.741,1.347,0.996,0.433,0.757,0.713,�k��,2.3,��
2019/06/01,08:30,0.740,1.064,0.739,1.346,0.996,0.435,0.757,0.713,�k�k��,2.5,��
2019/06/01,08:40,0.743,1.063,0.741,1.347,1.000,0.435,0.757,0.714,�k��,2.3,��
2019/06/01,08:50,0.743,1.064,0.742,1.348,0.995,0.435,0.756,0.714,�k��,3.2,��
2019/06/01,09:00,0.743,1.063,0.742,1.346,0.996,0.435,0.756,0.716,�k��,3.6,��
2019/06/01,09:10,0.743,1.064,0.742,1.349,0.997,0.436,0.755,0.715,�k��,3.4,��
2019/06/01,09:20,0.743,1.060,0.741,1.348,0.997,0.434,0.756,0.714,�k��,3.6,��
2019/06/01,09:30,0.746,1.063,0.743,1.347,0.996,0.435,0.759,0.715,���k��,4.3,��
2019/06/01,09:40,0.745,1.066,0.740,1.349,0.998,0.435,0.758,0.715,�k��,3.7,��
2019/06/01,09:50,0.745,1.066,0.742,1.350,0.999,0.436,0.759,0.715,�k��,4.0,��
2019/06/01,10:00,0.744,1.066,0.743,1.350,0.999,0.435,0.759,0.715,�k��,4.6,��
2019/06/01,10:10,0.745,1.068,0.741,1.351,1.000,0.435,0.759,0.715,�k��,4.5,��
2019/06/01,10:20,0.747,1.067,0.744,1.350,1.001,0.435,0.759,0.715,���k��,4.7,��
2019/06/01,10:30,0.745,1.068,0.746,1.349,1.002,0.434,0.759,0.717,��,4.3,��
2019/06/01,10:40,0.747,1.069,0.745,1.348,0.999,0.435,0.759,0.715,���쓌,2.9,��
2019/06/01,10:50,0.748,1.071,0.744,1.352,1.003,0.435,0.758,0.715,�쓌,2.0,��
2019/06/01,11:00,0.747,1.072,0.746,1.350,1.002,0.435,0.760,0.718,���쓌,2.8,��
2019/06/01,11:10,0.748,1.074,0.746,1.350,1.002,0.434,0.761,0.715,�쓌,3.0,��
2019/06/01,11:20,0.747,1.072,0.746,1.350,1.004,0.435,0.759,0.716,�쓌,3.1,��
2019/06/01,11:30,0.748,1.073,0.747,1.347,1.004,0.437,0.760,0.716,�쓌,2.6,��
2019/06/01,11:40,0.750,1.073,0.746,1.349,1.007,0.436,0.759,0.716,�쓌,3.8,��
2019/06/01,11:50,0.749,1.073,0.746,1.351,1.007,0.433,0.761,0.719,��쓌,3.4,��
2019/06/01,12:00,0.749,1.074,0.746,1.352,1.006,0.435,0.760,0.717,�쓌,3.4,��
2019/06/01,12:10,0.749,1.076,0.747,1.348,1.007,0.433,0.760,0.716,�쓌,3.2,��
2019/06/01,12:20,0.749,1.077,0.748,1.350,1.008,0.436,0.758,0.717,�쓌,3.9,��
2019/06/01,12:30,0.750,1.080,0.747,1.354,1.007,0.438,0.759,0.716,��쓌,4.4,��
2019/06/01,12:40,0.751,1.080,0.750,1.352,1.010,0.435,0.760,0.718,��쓌,4.1,��
2019/06/01,12:50,0.748,1.080,0.749,1.354,1.008,0.435,0.761,0.717,��쓌,4.2,��
2019/06/01,13:00,0.750,1.081,0.749,1.351,1.009,0.436,0.761,0.715,��쓌,6.0,��
2019/06/01,13:10,0.752,1.082,0.747,1.352,1.011,0.436,0.760,0.716,��쓌,5.6,��
2019/06/01,13:20,0.750,1.082,0.748,1.350,1.009,0.436,0.761,0.716,��쓌,5.9,��
2019/06/01,13:30,0.751,1.083,0.751,1.355,1.012,0.436,0.761,0.717,��쓌,7.0,��
2019/06/01,13:40,0.752,1.080,0.751,1.355,1.010,0.436,0.761,0.716,�쓌,6.7,��
2019/06/01,13:50,0.750,1.082,0.749,1.353,1.013,0.438,0.761,0.718,��쓌,7.2,��
2019/06/01,14:00,0.750,1.080,0.751,1.353,1.013,0.439,0.760,0.716,��쓌,7.9,��
2019/06/01,14:10,0.753,1.081,0.750,1.353,1.013,0.437,0.762,0.718,��쓌,7.4,��
2019/06/01,14:20,0.753,1.084,0.748,1.354,1.011,0.438,0.761,0.719,��쓌,7.8,��
2019/06/01,14:30,0.754,1.084,0.749,1.356,1.008,0.436,0.761,0.716,��쓌,6.7,��
2019/06/01,14:40,0.751,1.082,0.750,1.354,1.012,0.437,0.760,0.717,��쓌,9.0,��
2019/06/01,14:50,0.754,1.085,0.752,1.355,1.013,0.437,0.762,0.716,��쓌,5.3,��
2019/06/01,15:00,0.754,1.085,0.749,1.353,1.013,0.438,0.762,0.716,��,4.9,��
2019/06/01,15:10,0.752,1.084,0.749,1.357,1.012,0.438,0.762,0.718,��쓌,7.5,��
2019/06/01,15:20,0.752,1.087,0.747,1.358,1.013,0.438,0.763,0.717,��쓌,7.5,��
2019/06/01,15:30,0.753,1.085,0.752,1.355,1.014,0.439,0.763,0.718,��,8.0,��
2019/06/01,15:40,0.750,1.084,0.749,1.355,1.012,0.438,0.762,0.717,��쓌,8.0,��
2019/06/01,15:50,0.754,1.086,0.752,1.358,1.015,0.439,0.761,0.719,��쓌,9.4,��
2019/06/01,16:00,0.751,1.087,0.750,1.359,1.014,0.439,0.761,0.716,��쓌,10.0,��
2019/06/01,16:10,0.752,1.086,0.750,1.358,1.015,0.438,0.761,0.718,��쓌,9.3,��
2019/06/01,16:20,0.752,1.089,0.751,1.358,1.014,0.440,0.762,0.718,��쓌,9.8,��
2019/06/01,16:30,0.754,1.086,0.752,1.358,1.014,0.440,0.763,0.717,��쓌,9.5,��
2019/06/01,16:40,0.753,1.088,0.750,1.356,1.017,0.440,0.761,0.716,��쓌,10.2,��
2019/06/01,16:50,0.754,1.088,0.752,1.358,1.015,0.438,0.760,0.718,��쓌,9.7,��
2019/06/01,17:00,0.755,1.088,0.752,1.359,1.014,0.436,0.762,0.716,��쓌,10.5,��
2019/06/01,17:10,0.753,1.086,0.751,1.358,1.013,0.438,0.761,0.718,��쓌,8.8,��
2019/06/01,17:20,0.754,1.089,0.751,1.356,1.015,0.438,0.760,0.717,��,8.3,��
2019/06/01,17:30,0.753,1.088,0.754,1.356,1.015,0.436,0.761,0.718,��,8.7,��
2019/06/01,17:40,0.753,1.090,0.752,1.357,1.016,0.438,0.759,0.717,��,8.5,��
2019/06/01,17:50,0.753,1.087,0.751,1.358,1.013,0.440,0.761,0.717,��,7.8,��
2019/06/01,18:00,0.753,1.087,0.753,1.359,1.015,0.439,0.762,0.720,��,7.3,��
2019/06/01,18:10,0.752,1.091,0.750,1.359,1.014,0.441,0.762,0.718,��쐼,7.5,��
2019/06/01,18:20,0.752,1.090,0.753,1.361,1.014,0.438,0.761,0.720,��,7.0,��
2019/06/01,18:30,0.755,1.092,0.754,1.364,1.013,0.439,0.761,0.721,��쐼,7.0,��
2019/06/01,18:40,0.754,1.091,0.753,1.362,1.015,0.438,0.761,0.722,��쐼,6.3,��
2019/06/01,18:50,0.753,1.092,0.753,1.359,1.014,0.439,0.761,0.720,��쐼,5.3,��
2019/06/01,19:00,0.755,1.092,0.753,1.362,1.016,0.438,0.762,0.722,��,4.9,��
2019/06/01,19:10,0.755,1.091,0.756,1.363,1.015,0.440,0.763,0.721,��,5.0,��
2019/06/01,19:20,0.755,1.092,0.755,1.364,1.017,0.440,0.762,0.722,��쐼,4.5,��
2019/06/01,19:30,0.756,1.093,0.755,1.363,1.017,0.440,0.763,0.721,��쐼,3.6,��
2019/06/01,19:40,0.756,1.093,0.755,1.362,1.017,0.441,0.761,0.723,��쐼,3.1,��
2019/06/01,19:50,0.756,1.093,0.754,1.364,1.018,0.441,0.761,0.722,��쓌,2.6,��
2019/06/01,20:00,0.755,1.091,0.755,1.364,1.016,0.440,0.764,0.720,��,4.0,��
2019/06/01,20:10,0.755,1.092,0.754,1.365,1.016,0.439,0.763,0.720,��,3.6,��
2019/06/01,20:20,0.756,1.091,0.753,1.362,1.016,0.439,0.765,0.720,��,3.8,��
2019/06/01,20:30,0.756,1.090,0.754,1.364,1.019,0.440,0.765,0.720,��,3.5,��
2019/06/01,20:40,0.756,1.094,0.754,1.364,1.018,0.439,0.764,0.722,��,3.6,��
2019/06/01,20:50,0.757,1.090,0.755,1.365,1.017,0.440,0.762,0.720,��쐼,2.6,��
2019/06/01,21:00,0.755,1.093,0.755,1.363,1.017,0.439,0.763,0.720,��쐼,3.4,��
2019/06/01,21:10,0.756,1.094,0.753,1.364,1.017,0.439,0.762,0.719,��쐼,3.7,��
2019/06/01,21:20,0.756,1.090,0.756,1.364,1.016,0.438,0.765,0.720,�쐼,3.1,��
2019/06/01,21:30,0.757,1.090,0.754,1.362,1.018,0.441,0.765,0.721,��쐼,2.9,��
2019/06/01,21:40,0.756,1.089,0.753,1.363,1.018,0.438,0.764,0.720,��쐼,3.2,��
2019/06/01,21:50,0.755,1.092,0.755,1.363,1.017,0.439,0.765,0.720,��쐼,3.4,��
2019/06/01,22:00,0.757,1.092,0.756,1.365,1.016,0.439,0.762,0.721,��,2.8,��
2019/06/01,22:10,0.756,1.089,0.754,1.363,1.017,0.439,0.764,0.720,��,2.5,��
2019/06/01,22:20,0.755,1.091,0.754,1.362,1.020,0.439,0.763,0.721,��쐼,2.9,��
2019/06/01,22:30,0.756,1.089,0.756,1.362,1.018,0.438,0.764,0.721,��쐼,3.7,��
2019/06/01,22:40,0.757,1.089,0.754,1.364,1.017,0.440,0.763,0.721,��쐼,3.4,��
2019/06/01,22:50,0.755,1.090,0.754,1.365,1.019,0.440,0.764,0.721,�쐼,3.2,��
2019/06/01,23:00,0.756,1.090,0.756,1.362,1.016,0.440,0.764,0.720,�쐼,2.0,��
2019/06/01,23:10,0.755,1.091,0.755,1.364,1.017,0.441,0.764,0.721,�쐼,1.7,��
2019/06/01,23:20,0.756,1.091,0.756,1.364,1.018,0.440,0.764,0.719,��쐼,2.3,��
2019/06/01,23:30,0.756,1.089,0.754,1.365,1.018,0.439,0.764,0.721,��쐼,3.6,��
2019/06/01,23:40,0.755,1.091,0.755,1.363,1.017,0.439,0.764,0.719,��쐼,3.3,��
2019/06/01,23:50,0.756,1.090,0.755,1.362,1.018,0.439,0.763,0.720,��쐼,3.4,��
